User: anonymous   Login
Location: Ithaca
(42.4410°N, 76.4970°W)
Time: 09:44:24
(UTC-05:00)
Language:

Cosmos 1271 Rocket - Orbit

View from above orbital plane
View from above orbital plane
View from above satellite
View from above satellite

Ground track
Ground track

The orbit data is extracted from the following two-line orbital elements,

1 12465U 81046B   17022.21252412  .00001113  00000-0  59485-4 0  9999
2 12465  81.2420 192.0802 0036082  88.6904 271.8456 15.13672208945379
Epoch (UTC): 22 January 2017 05:06:02
Eccentricity: 0.0036082
inclination: 81.2420°
perigee height: 500 km
apogee height: 550 km
right ascension of ascending node: 192.0802°
argument of perigee: 88.6904°
revolutions per day: 15.13672208
mean anomaly at epoch: 271.8456°
orbit number at epoch: 94537

The dashed part of the orbit path shows where the satellite is in the earth's shadow,  

DLR